Location: Erba
(45.8000°N, 9.2500°E)
Time: 06:06:59
(UTC+01:00)

ISS - Pass Details

Date: 20 February 2020
Orbit: 415 x 423 km, 51.6° (Epoch: 27 February)

Event Time Altitude Azimuth Distance (km) Brightness Sun altitude
Rises 06:39:24 0° 202° (SSW) 2,352 -0.1 -7.5°
Reaches altitude 10° 06:41:51 10° 184° (S) 1,494 -0.9 -7.1°
Maximum altitude 06:44:21 20° 136° (SE) 1,052 -0.9 -6.6°
Drops below altitude 10° 06:46:51 10° 88° (E) 1,505 0.7 -6.2°
Sets 06:49:20 0° 71° (ENE) 2,375 1.3 -5.8°
